Wind_Speed
17 16 15 15 13 13 12 11 11 11 11 10 10 9 9 9 8 8 8 7 7 7 7 6 6 6 7 7 7 8 9 9 9 10 10 10 11 11 11 11 12 12 12
19 18 17 16 15 14 13 13 13 12 12 11 11 11 10 10 9 9 9 9 8 8 8 8 8 8 8 8 9 9 9 10 10 10 11 11 12 12 12 13 13 13 14
21 19 18 18 17 16 15 14 14 14 13 13 12 12 11 11 11 10 10 10 9 10 9 10 10 10 10 9 10 10 10 10 10 11 11 12 13 13 13 13 14 14 14
22 21 20 19 18 17 16 15 15 15 15 14 14 13 13 12 12 12 11 11 11 10 10 10 10 11 11 11 11 11 11 11 11 12 12 13 13 14 14 15 15 15 15
23 23 22 21 20 19 18 17 17 16 16 15 15 14 14 14 13 12 12 12 12 12 12 12 12 12 12 12 12 13 13 13 13 13 14 14 14 15 15 15 16 16 17
25 24 23 22 21 21 20 19 19 18 18 16 15 15 15 15 14 14 14 14 14 13 13 14 14 14 14 13 14 14 14 15 15 15 15 15 15 16 16 16 16 17 17
26 25 24 23 22 22 21 21 20 19 19 18 16 16 16 16 15 15 15 15 15 15 15 15 15 15 15 15 15 16 16 16 16 16 16 17 17 17 17 18 18 19 19
28 26 26 25 23 23 23 22 21 21 20 19 17 17 17 17 17 16 16 16 16 16 16 16 16 16 17 17 17 17 17 17 17 18 18 18 18 19 19 19 20 21 21
30 28 27 26 25 24 23 23 22 21 21 20 19 19 19 18 18 17 17 17 17 17 17 17 17 17 18 18 18 18 18 18 18 19 19 19 20 21 21 22 22 22 23
30 30 29 28 26 26 25 24 23 22 21 21 20 20 20 19 19 19 18 18 18 17 17 18 18 18 19 19 19 19 20 20 20 20 21 21 22 22 23 24 24 24 25
31 30 29 28 27 27 26 24 24 23 23 23 22 22 21 21 20 20 19 19 19 19 19 19 19 20 20 20 21 21 21 21 21 22 22 22 23 24 24 25 26 26 26
32 31 30 30 28 27 27 25 25 25 24 24 24 23 23 22 21 20 20 20 20 20 20 21 21 21 21 21 22 22 23 23 23 23 23 23 24 25 25 26 26 26 26
34 32 30 30 30 28 27 27 27 26 25 25 25 25 24 24 22 21 21 22 22 22 22 22 22 22 23 23 23 23 24 24 24 25 25 25 25 26 26 27 27 27 27
34 32 30 31 30 29 28 28 28 27 27 26 26 26 25 24 24 23 22 23 23 23 23 23 23 23 24 24 24 25 25 25 25 25 25 26 26 27 27 27 28 28 28
33 32 31 31 31 30 29 28 28 29 28 28 28 27 26 25 25 24 24 23 23 23 24 23 24 24 24 24 25 25 25 26 26 27 27 27 27 28 28 28 29 29 29
33 32 32 31 31 30 30 29 28 28 28 28 29 29 28 27 27 26 25 25 24 24 25 25 25 25 25 25 26 26 27 27 27 28 28 28 28 28 29 29 30 29 29
33 33 32 32 31 30 29 30 29 29 28 28 28 28 28 28 28 26 26 26 26 26 26 26 26 26 26 26 27 28 28 29 29 30 30 30 29 29 30 30 30 30 30
32 33 33 33 32 30 29 29 29 29 29 29 28 28 28 28 28 28 27 26 26 26 26 27 27 27 27 28 29 29 30 30 31 31 31 31 31 31 31 31 31 31 31
31 32 33 33 33 32 30 30 30 29 29 28 28 28 29 29 29 29 28 27 28 28 28 27 27 28 29 30 30 31 31 32 32 32 32 32 32 32 32 32 32 32 32
30 31 32 32 31 31 31 31 31 30 30 29 28 28 29 30 30 30 29 29 29 29 29 29 30 30 30 31 31 31 32 32 32 33 33 33 33 33 33 33 32 33 33
30 30 32 32 31 30 31 31 31 30 29 29 28 29 30 30 30 30 30 29 30 31 30 31 32 32 32 32 32 32 33 33 33 34 33 34 34 34 34 33 33 33 33
29 30 31 32 31 30 30 30 30 32 31 31 30 31 31 30 31 32 31 31 31 32 32 32 33 33 33 33 33 33 33 33 33 34 33 33 34 34 33 33 33 33 33
28 28 29 31 31 31 30 30 30 31 32 32 30 30 31 32 32 32 32 32 33 33 34 33 33 33 33 33 33 34 34 34 34 34 34 34 34 34 34 34 35 35 35
28 28 29 29 30 31 31 30 31 31 31 32 30 30 32 33 33 34 34 34 35 35 35 35 34 34 34 34 35 35 35 35 35 35 35 35 36 36 36 36 37 37 37
27 28 28 29 30 31 31 32 32 33 33 32 32 33 34 35 35 35 35 35 36 37 37 36 36 35 35 36 36 36 37 37 37 37 36 36 37 37 37 38 38 39 39
28 28 28 29 30 31 32 33 33 35 34 33 33 34 35 35 35 36 36 37 37 38 38 37 36 36 36 37 37 38 38 39 39 38 37 37 38 39 39 39 40 40 40
Wind_Direction
233 234 235 236 238 239 239 240 241 242 241 240 241 242 243 241 241 241 243 246 249 252 253 257 263 266 268 273 276 277 277 278 281 283 284 284 284 284 285 286 285 285 284
234 235 236 237 238 240 241 241 243 244 244 243 244 245 245 245 245 246 247 250 252 255 256 260 265 270 274 276 278 278 279 280 282 283 283 283 282 283 285 285 286 286 286
234 234 236 237 239 242 243 244 244 243 245 245 245 247 247 247 247 249 251 253 254 256 259 263 267 272 275 277 279 279 279 279 280 282 282 283 284 284 284 285 286 286 287
233 234 236 237 239 242 245 245 245 244 245 246 246 248 248 249 250 252 254 255 257 258 262 266 270 273 275 277 278 279 280 281 281 283 284 285 285 286 285 285 285 286 287
233 234 236 238 241 244 247 247 246 245 245 245 245 247 248 248 250 253 256 257 259 261 265 268 271 274 276 277 277 278 279 280 281 283 285 286 287 287 287 287 286 285 285
232 233 236 239 242 246 248 248 246 246 245 243 244 246 248 249 251 254 257 258 260 262 265 269 272 274 275 276 277 278 279 280 281 284 285 286 287 288 289 289 287 286 285
232 233 236 240 242 245 248 248 246 245 244 243 243 246 248 250 253 255 258 259 260 263 267 270 272 272 273 275 277 279 281 281 283 283 284 286 287 288 288 288 287 286 285
233 234 236 239 242 246 247 248 246 245 244 244 244 246 248 251 254 256 258 260 262 265 268 271 271 272 274 276 278 279 279 281 284 285 285 286 287 287 287 287 287 287 286
234 235 236 238 241 244 247 248 247 246 245 244 244 246 249 252 254 257 260 263 265 267 268 271 270 272 275 277 278 278 279 281 284 286 286 286 287 287 287 287 287 287 286
234 235 236 238 240 244 246 247 247 245 244 244 245 247 249 252 254 256 260 264 267 269 270 271 270 273 275 277 278 278 279 281 283 285 286 287 287 287 287 287 287 286 286
233 235 236 238 241 242 244 244 246 246 245 244 245 248 249 250 253 256 260 264 268 269 270 272 272 274 276 277 278 278 280 282 283 285 286 287 287 288 288 288 287 286 286
233 235 237 238 241 242 243 243 244 246 246 246 246 248 249 250 252 256 260 264 267 269 270 272 274 275 276 277 278 278 279 280 282 284 285 286 287 287 288 288 288 287 286
233 235 237 240 242 243 244 244 244 247 248 247 248 249 250 251 253 256 261 264 266 270 271 273 275 276 278 278 278 279 279 281 282 283 283 285 286 286 287 287 288 288 287
232 236 238 239 242 243 244 245 246 247 248 248 248 249 250 252 254 257 260 264 267 271 271 272 275 277 279 280 279 278 279 280 281 283 284 284 285 285 285 286 287 288 288
232 235 236 238 240 243 245 246 246 247 247 248 249 251 252 253 255 258 261 265 267 270 272 273 274 277 279 279 279 279 280 280 280 281 282 283 285 285 285 285 287 287 287
231 234 235 238 240 242 245 246 246 247 248 249 250 251 253 254 256 259 261 266 268 270 272 272 274 276 278 279 280 279 281 282 282 281 282 283 285 285 285 287 288 287 287
233 234 236 239 241 244 246 247 248 248 248 248 250 251 253 255 257 260 263 266 269 272 273 274 276 278 278 278 280 280 281 282 283 283 282 282 284 285 286 287 287 287 287
233 235 238 241 242 244 246 248 249 251 249 249 249 252 253 256 257 260 264 267 269 272 274 275 276 277 278 279 280 281 281 282 283 283 282 282 284 285 287 287 287 286 286
235 237 239 241 243 245 248 252 250 249 250 249 250 252 255 257 259 261 263 266 269 271 273 274 275 277 278 279 280 281 281 282 283 283 283 283 284 284 286 286 287 286 287
237 238 239 241 245 247 250 251 250 251 252 254 253 253 256 257 260 262 264 265 269 271 273 274 274 275 277 279 280 281 282 282 283 284 284 283 284 285 285 286 286 286 287
239 243 242 242 247 250 251 253 253 254 255 255 254 255 257 258 261 264 265 266 269 272 274 275 275 276 277 279 279 281 282 283 284 284 284 284 284 285 285 285 285 286 287
242 244 243 244 248 251 253 254 256 256 258 259 257 257 259 259 261 264 267 267 268 271 274 275 275 276 277 279 280 281 282 283 283 284 285 285 285 285 285 284 284 286 287
243 245 245 246 248 251 252 254 254 255 258 256 257 260 260 261 263 267 270 270 270 272 275 276 277 277 278 279 280 281 281 281 282 284 285 285 285 285 285 284 285 286 286
246 248 247 248 251 253 254 255 255 257 258 257 259 263 263 263 264 268 270 272 272 273 275 276 276 277 278 279 280 281 281 282 282 283 283 285 285 285 285 285 285 286 286
248 249 249 251 252 254 255 256 257 258 259 259 262 266 263 264 266 268 271 272 273 274 276 276 277 277 277 278 280 280 281 282 283 283 283 284 285 286 285 285 286 286 286
250 252 253 254 253 255 257 257 257 258 261 261 264 266 266 267 267 269 271 273 274 275 275 276 278 278 279 280 280 281 281 282 283 283 283 283 284 285 286 286 286 287 287
Height
5855 5856 5858 5859 5860 5861 5861 5862 5862 5863 5864 5864 5865 5865 5866 5866 5866 5867 5867 5868 5868 5868 5869 5869 5869 5869 5869 5869 5869 5869 5869 5869 5869 5869 5869 5869 5869 5868 5868 5868 5868 5868 5868
5852 5854 5855 5856 5857 5858 5859 5860 5860 5861 5862 5862 5863 5864 5864 5865 5865 5865 5866 5866 5867 5867 5867 5868 5868 5868 5868 5868 5868 5868 5868 5867 5867 5867 5867 5867 5867 5866 5866 5866 5866 5865 5865
5849 5851 5852 5854 5855 5856 5857 5857 5858 5859 5859 5860 5861 5862 5862 5863 5863 5864 5864 5865 5865 5865 5866 5866 5866 5866 5866 5866 5866 5866 5866 5865 5865 5865 5865 5865 5864 5864 5864 5864 5863 5863 5863
5845 5847 5849 5850 5852 5853 5854 5855 5855 5856 5857 5858 5858 5859 5860 5861 5861 5862 5862 5863 5863 5863 5864 5864 5864 5864 5864 5864 5864 5864 5864 5863 5863 5863 5863 5863 5862 5862 5861 5861 5861 5860 5860
5841 5844 5845 5847 5849 5850 5851 5852 5853 5853 5854 5855 5856 5857 5858 5858 5859 5860 5860 5861 5861 5861 5861 5862 5862 5862 5862 5862 5862 5861 5861 5861 5861 5861 5860 5860 5859 5859 5859 5858 5858 5857 5857
5837 5839 5842 5843 5845 5846 5848 5849 5849 5850 5851 5852 5853 5854 5855 5856 5856 5857 5858 5858 5858 5859 5859 5859 5859 5859 5859 5859 5859 5859 5859 5858 5858 5858 5858 5857 5857 5856 5856 5855 5855 5854 5854
5832 5835 5837 5839 5841 5842 5844 5845 5846 5847 5847 5848 5850 5851 5852 5853 5853 5854 5855 5855 5855 5856 5856 5856 5856 5856 5856 5856 5856 5856 5855 5855 5855 5855 5855 5854 5854 5853 5852 5852 5851 5851 5850
5827 5830 5833 5835 5836 5838 5839 5841 5842 5843 5844 5845 5846 5847 5849 5849 5850 5851 5851 5852 5852 5852 5853 5853 5853 5853 5853 5853 5852 5852 5852 5852 5852 5851 5851 5851 5850 5850 5849 5848 5847 5847 5846
5822 5825 5828 5830 5832 5834 5835 5836 5837 5839 5840 5841 5842 5844 5845 5846 5847 5847 5848 5848 5849 5849 5849 5849 5849 5849 5849 5849 5849 5849 5848 5848 5848 5848 5847 5847 5846 5846 5845 5844 5843 5842 5841
5816 5819 5823 5825 5827 5829 5830 5832 5833 5834 5836 5837 5838 5840 5841 5842 5843 5844 5844 5845 5845 5845 5845 5845 5845 5845 5845 5845 5844 5844 5844 5844 5844 5843 5843 5842 5842 5841 5840 5839 5839 5838 5837
5810 5813 5817 5820 5822 5824 5825 5827 5829 5830 5831 5833 5834 5835 5836 5838 5839 5840 5840 5841 5841 5841 5841 5841 5841 5841 5841 5840 5840 5840 5840 5840 5839 5839 5838 5838 5837 5836 5835 5834 5833 5832 5831
5805 5808 5811 5814 5816 5818 5820 5822 5824 5825 5827 5828 5829 5831 5832 5833 5834 5835 5836 5836 5837 5837 5837 5837 5837 5836 5836 5836 5836 5835 5835 5835 5835 5834 5833 5832 5832 5831 5830 5829 5828 5827 5826
5798 5801 5805 5808 5810 5812 5815 5817 5819 5820 5822 5823 5824 5826 5827 5829 5830 5831 5832 5832 5832 5832 5832 5832 5832 5832 5831 5831 5831 5830 5830 5830 5829 5829 5828 5827 5826 5825 5824 5823 5822 5821 5820
5793 5796 5799 5803 5805 5807 5809 5811 5813 5815 5816 5818 5819 5820 5822 5823 5825 5826 5827 5827 5827 5827 5827 5827 5827 5827 5827 5826 5826 5825 5825 5824 5824 5823 5822 5821 5821 5820 5819 5818 5817 5815 5814
5787 5791 5794 5797 5800 5802 5804 5806 5807 5809 5811 5812 5814 5815 5817 5818 5820 5821 5822 5822 5822 5822 5822 5821 5821 5822 5822 5821 5820 5820 5819 5818 5818 5817 5816 5815 5815 5814 5813 5812 5811 5809 5808
5781 5785 5789 5791 5794 5796 5798 5800 5801 5803 5805 5807 5808 5809 5811 5813 5814 5815 5816 5816 5816 5816 5816 5816 5816 5816 5816 5816 5815 5814 5814 5813 5812 5811 5810 5809 5809 5808 5807 5805 5804 5803 5802
5775 5779 5783 5785 5788 5790 5792 5794 5796 5797 5799 5801 5802 5804 5805 5807 5808 5810 5810 5811 5811 5811 5811 5811 5811 5810 5810 5810 5809 5809 5808 5807 5806 5805 5804 5803 5802 5802 5800 5799 5798 5797 5795
5769 5773 5777 5779 5782 5784 5786 5788 5790 5791 5793 5795 5797 5798 5800 5801 5802 5804 5805 5805 5805 5805 5805 5805 5805 5805 5804 5804 5803 5802 5801 5800 5799 5798 5798 5797 5796 5795 5794 5793 5791 5790 5789
5764 5767 5771 5774 5776 5778 5780 5782 5784 5785 5787 5789 5791 5792 5794 5795 5796 5797 5798 5799 5799 5799 5799 5799 5799 5798 5798 5797 5797 5796 5795 5794 5793 5792 5791 5790 5789 5788 5787 5786 5784 5783 5782
5759 5762 5765 5767 5771 5773 5775 5777 5778 5780 5781 5783 5784 5786 5787 5789 5790 5791 5791 5792 5792 5792 5792 5792 5792 5791 5791 5790 5790 5789 5788 5787 5786 5785 5784 5783 5782 5781 5780 5778 5777 5776 5774
5754 5757 5760 5762 5765 5767 5769 5771 5773 5774 5775 5777 5779 5780 5781 5782 5783 5784 5785 5785 5786 5786 5785 5785 5784 5784 5784 5783 5783 5782 5781 5780 5779 5778 5777 5776 5775 5774 5772 5771 5770 5768 5767
5750 5753 5755 5757 5759 5761 5763 5765 5767 5769 5770 5772 5773 5774 5774 5775 5776 5777 5778 5778 5778 5778 5778 5777 5777 5776 5776 5775 5775 5774 5774 5773 5772 5770 5769 5768 5767 5766 5764 5763 5762 5760 5759
5745 5747 5750 5752 5754 5756 5758 5759 5761 5763 5764 5765 5767 5767 5768 5769 5769 5770 5770 5771 5770 5771 5770 5770 5769 5769 5768 5767 5767 5766 5766 5765 5764 5763 5762 5760 5759 5758 5756 5755 5753 5752 5750
5740 5742 5744 5746 5748 5750 5751 5753 5755 5756 5758 5759 5760 5760 5761 5762 5762 5763 5763 5763 5763 5763 5762 5762 5761 5761 5760 5760 5759 5758 5757 5756 5756 5755 5754 5752 5751 5749 5748 5746 5745 5743 5741
5735 5737 5739 5740 5742 5743 5745 5747 5748 5749 5751 5752 5753 5753 5754 5754 5754 5754 5755 5755 5754 5754 5754 5754 5753 5753 5752 5751 5750 5749 5749 5748 5747 5746 5746 5744 5742 5740 5739 5737 5735 5733 5732
5730 5731 5733 5734 5735 5736 5738 5740 5741 5742 5744 5745 5745 5746 5746 5746 5746 5746 5747 5746 5746 5746 5746 5745 5745 5744 5743 5743 5742 5740 5739 5739 5737 5736 5736 5735 5733 5731 5729 5727 5725 5723 5722